Simultaneous Nadir Overpasses (SNOs) Predictions

Prediction of SNOs between GOES-14 and AQUA Satellite Orbit:

Table of predicted SNOs for the next 14.0 days since TLE Epoch: 3/28/2020
Index Date Time (GOES-14) GOES-14 Lat,Lon AQUA Lat,Lon Distance(km) Time Diff (sec)
1 03/28/2020 20:18:09 -0.12,-104.07 0.52,-100.99 350.28 80
2 03/29/2020 08:39:25 0.12,-104.15 0.58,-106.15 228.12 80
3 03/31/2020 08:29:54 0.13,-104.15 -0.06,-103.20 107.94 80
4 03/31/2020 20:51:18 -0.12,-104.09 -1.04,-108.39 488.74 80
5 04/02/2020 08:17:43 0.13,-104.15 -0.70,-100.24 443.85 80
6 04/02/2020 20:39:07 -0.13,-104.08 -0.40,-105.43 153.29 80
7 04/04/2020 20:24:15 -0.14,-104.07 0.19,-102.47 182.13 80
8 04/05/2020 08:45:30 0.13,-104.12 0.90,-107.63 399.40 80
9 04/07/2020 08:33:20 0.14,-104.12 0.25,-104.68 63.31 80
10 04/09/2020 08:23:49 0.14,-104.12 -0.40,-101.73 272.71 80
11 04/09/2020 20:45:11 -0.13,-104.08 -0.76,-106.90 321.36 80




NCC Satellite Simultaneous Nadir Overpasses (SNOs) Prediction Service
